Weather in Bizino

Russia / Tyumen Oblast     58°08′28″N   68°16′13″E
temp.,
°C
wind,
m/s
gust,
m/s
humid.,
%
clouds,
%
prec.,
mm/h
press.,
hPa
HPBL,
m
17 june, thu
thu1723:00+16sse22511 0.0 101113
02:00+16s3559100 0.0 101069
05:00+16s379023 0.6 1008133
08:00+22ssw58688 0.0 1007441
11:00+27sw5843100 0.0 1005825
14:00+26sw5945100 0.0 10031210
17:00+28sw7124055 0.0 10002660
20:00+18wnw5897100 15.8 1001320
18 june, fri
fri1823:00+14n71195100 21.5 1004672
02:00+9n7149280 0.4 1005582
05:00+8n7138492 0.4 1007746
08:00+9n8126994 0.0 1009982
11:00+14nne91243100 0.0 10101632
14:00+17n81236100 0.0 10102077
17:00+17n8123499 0.0 10112466
20:00+15n510458 0.0 1011431
19 june, sat
sat1923:00+9nnw346031 0.0 101349
02:00+8nnw496516 0.0 1013153
05:00+7nnw396848 0.0 1014222
08:00+14nnw510460 0.0 10141387
11:00+17n710335 0.0 10142469
14:00+19n692918 0.0 10122820
17:00+20n683043 0.0 10112795
20:00+16nnw34535 0.0 101157
20 june, sun
sun2023:00+11nw336114 0.0 101126
02:00+9n22774 0.0 101018
05:00+10nw23770 0.0 101069
08:00+16wnw235845 0.0 1009490
11:00+19wnw3452100 0.0 10071162
14:00+21wnw566199 0.2 10061268
17:00+21n9115787 1.6 10062084
20:00+16nne913526 0.0 10091114
21 june, mon
mon2123:00+12n8155968 0.0 10111063
02:00+10nnw715575 0.0 1011859
05:00+9nnw6136914 0.0 1012684
08:00+13nnw8125740 0.0 10121163
11:00+16n81154100 0.0 10121701
14:00+18n794993 0.0 10121703
17:00+18n694983 0.0 10121665
20:00+16nne476156 0.0 1012270